Location: Gollag?dem
(16.8053°N, 80.8024°E)
Time: 14:18:37
(UTC+00:00)

Hubble Space Telescope - Pass Details

Date: 13 August 2020
Orbit: 536 x 540 km, 28.5° (Epoch: 24 September)

Event Time Altitude Azimuth Distance (km) Brightness Sun altitude
Exits shadow 22:46:42 13° 331° (NNW) 1,603 3.1 -22.0°
Maximum altitude 22:48:22 16° 358° (N) 1,455 3.2 -21.6°
Drops below altitude 10° 22:50:54 10° 36° (NE) 1,781 4.2 -21.0°
Sets 22:53:56 0° 59° (ENE) 2,672 5.9 -20.4°
